Location: Ferchesar
(52.6477°N, 12.4298°E)
Time: 03:19:55
(UTC+01:00)

Vanguard 3 - Pass Details

Date: 12 December 2021
Orbit: 508 x 3260 km, 33.3° (Epoch: 21 January)

Event Time Altitude Azimuth Distance (km) Brightness Sun altitude
Rises 08:36:30 0° 273° (W) 7,203 11.5 1.9°
Reaches altitude 10° 08:46:27 10° 249° (WSW) 5,864 11.3 2.9°
Maximum altitude 08:51:33 12° 232° (SW) 5,413 11.3 3.5°
Drops below altitude 10° 08:56:13 10° 214° (SW) 5,241 11.5 4.0°
Sets 09:03:41 0° 187° (S) 5,571 12.1 4.7°
